Regional Weather Roundup
Issued by NWS

Home | Current Version | Previous Version | Graphics & Text | Print | Product List | Glossary On
Versions: 1 2 3 4 5 6 7 8 9 10 11 12 13 14 15 16 17 18 19 20 21 22 23 24 25 26 27 28 29 30 31 32 33 34 35 36 37 38 39 40 41 42 43 44 45 46 47 48 49 50
992
ASUS43 KMKX 070010
RWRWI

WISCONSIN REGIONAL WEATHER ROUNDUP
NATIONAL WEATHER SERVICE MILWAUKEE/SULLIVAN WI
600 PM CST SAT FEB 06 2016

NOTE: "FAIR" INDICATES FEW OR NO CLOUDS BELOW 12,000 FEET WITH NO
SIGNIFICANT WEATHER AND/OR OBSTRUCTIONS TO VISIBILITY.

WIZ001-002-006>008-014>016-023>028-070100-
NORTHWEST WISCONSIN

CITY           SKY/WX    TMP DP  RH WIND       PRES   REMARKS
SUPERIOR ARPT  CLOUDY    34  27  76 S9        29.77F WCI  27
6HR MIN TEMP:  31; 6HR MAX TEMP:  37;

ASHLAND        CLOUDY    35  24  64 S9        29.84F WCI  28
6HR MIN TEMP:  30; 6HR MAX TEMP:  38;

HAYWARD        CLOUDY    32  23  69 S14       29.85F WCI  22
6HR MIN TEMP:  28; 6HR MAX TEMP:  33;

SIREN          MOCLDY    33  26  75 S14       29.82F WCI  23
6HR MIN TEMP:  33; 6HR MAX TEMP:  35;

CUMBERLAND     CLOUDY    30  25  80 S14       29.86F WCI  20
RICE LAKE      CLOUDY    32  24  74 SE9       29.89F WCI  24
6HR MIN TEMP:  28; 6HR MAX TEMP:  33;

CHETEK         CLOUDY    31  25  77 S10G17    29.90F WCI  22
6HR MIN TEMP:  28; 6HR MAX TEMP:  32;

LADYSMITH      CLOUDY    32  24  73 S10       29.92F WCI  24
6HR MIN TEMP:  29; 6HR MAX TEMP:  35;

EAU CLAIRE     CLOUDY    32  23  69 S12       29.93F WCI  23
6HR MIN TEMP:  29; 6HR MAX TEMP:  34;

MENOMONIE      MOCLDY    32  25  76 S12       29.93F WCI  23
6HR MIN TEMP:  32; 6HR MAX TEMP:  38;

NEW RICHMOND   CLOUDY    32  26  79 S17G23    29.87F WCI  21
6HR MIN TEMP:  30; 6HR MAX TEMP:  33;

OSCEOLA        CLOUDY    33  27  77 S14       29.87F WCI  24
6HR MIN TEMP:  32; 6HR MAX TEMP:  35;

$$

WIZ003>005-009-010-017-018-070100-
NORTH CENTRAL WISCONSIN

CITY           SKY/WX    TMP DP  RH WIND       PRES   REMARKS
MANITOWISH WTR CLOUDY    31  22  69 S9        29.86F WCI  23
6HR MIN TEMP:  25; 6HR MAX TEMP:  32;

ARBOR VITAE    CLOUDY    32  23  70 S14       29.88F WCI  22
6HR MIN TEMP:  27; 6HR MAX TEMP:  33;

WOODRUFF       CLOUDY    32  23  70 S14       29.88F WCI  22
6HR MIN TEMP:  27; 6HR MAX TEMP:  33;

RHINELANDER    CLOUDY    30  20  66 S12       29.91F WCI  20
6HR MIN TEMP:  25; 6HR MAX TEMP:  32;

EAGLE RIVER    CLOUDY    30  20  66 S8        29.89F WCI  22
LAND O LAKES   CLOUDY    30  22  70 S7        29.87F WCI  23
6HR MIN TEMP:  27; 6HR MAX TEMP:  31;

PHILLIPS       CLOUDY    31  22  67 S10       29.88F WCI  23
6HR MIN TEMP:  26; 6HR MAX TEMP:  33;

TOMAHAWK       CLOUDY    30  21  70 S3        29.93F
6HR MIN TEMP:  27; 6HR MAX TEMP:  33;

MEDFORD        CLOUDY    29  22  74 S12       29.93F WCI  20
6HR MIN TEMP:  26; 6HR MAX TEMP:  31;

MERRILL        CLOUDY    31  24  74 SW9       29.96F WCI  23
6HR MIN TEMP:  27; 6HR MAX TEMP:  32;

$$

WIZ029-030-035-036-043>047-070100-
CENTRAL WISCONSIN

CITY           SKY/WX    TMP DP  RH WIND       PRES   REMARKS
WAUSAU         CLOUDY    33  23  66 S9        29.95F WCI  25
6HR MIN TEMP:  28; 6HR MAX TEMP:  33;

MOSINEE        CLOUDY    30  25  80 S12       29.99F WCI  21
MARSHFIELD     CLOUDY    31  22  69 S13       29.96F WCI  21
6HR MIN TEMP:  29; 6HR MAX TEMP:  34;

STEVENS POINT  CLOUDY    29  23  78 S9        30.01S WCI  21
6HR MIN TEMP:  27; 6HR MAX TEMP:  32;

WAUPACA        CLOUDY    32  26  77 S3        30.03F
6HR MIN TEMP:  31; 6HR MAX TEMP:  36;

WAUTOMA        CLOUDY    31  25  78 S6        30.05F WCI  25
6HR MIN TEMP:  30; 6HR MAX TEMP:  35;

WISC RAPIDS    CLOUDY    31  22  69 S8        30.02F WCI  23
6HR MIN TEMP:  29; 6HR MAX TEMP:  34;

CAMP DOUGLAS   MOCLDY    33  27  81 S5        30.02F WCI  28
6HR MIN TEMP:  31; 6HR MAX TEMP:  36; 6HR PCP:  0.02;

$$

WIZ011>013-019>022-031-037>040-048>050-070100-
NORTHEAST WISCONSIN

CITY           SKY/WX    TMP DP  RH WIND       PRES   REMARKS
ANTIGO         CLOUDY    28  23  82 S9        29.95F WCI  19
6HR MIN TEMP:  25; 6HR MAX TEMP:  30;

SHAWANO        PTCLDY    31  25  77 CALM      30.02F
OCONTO         CLOUDY    29  25  84 S3        30.03F
6HR MIN TEMP:  28; 6HR MAX TEMP:  31;

STURGEON BAY   CLOUDY    28  23  80 SW8       30.06F WCI  20
6HR MIN TEMP:  27; 6HR MAX TEMP:  28;

GREEN BAY      CLOUDY    29  23  78 S7        30.05F WCI  22
6HR MIN TEMP:  28; 6HR MAX TEMP:  31;

MANITOWOC      CLOUDY    30  25  81 SW6       30.07F WCI  24
6HR MIN TEMP:  30; 6HR MAX TEMP:  33;

APPLETON       MOCLDY    28  21  74 S8        30.02F WCI  20
CLINTONVILLE   CLOUDY    30  23  74 S6        30.03S WCI  24
OSHKOSH        CLOUDY    29  23  78 S10       30.05F WCI  20
6HR MIN TEMP:  28; 6HR MAX TEMP:  32;

$$

WIZ032>034-041-042-053>061-070100-
SOUTHWEST WISCONSIN

CITY           SKY/WX    TMP DP  RH WIND       PRES   REMARKS
LA CROSSE      CLOUDY    30  24  78 S13       30.02F WCI  20
6HR MIN TEMP:  30; 6HR MAX TEMP:  33;

SPARTA         CLOUDY    31  25  77 S5        30.03F WCI  27
6HR MIN TEMP:  31; 6HR MAX TEMP:  36; 6HR PCP:  0.07;

VIROQUA        CLOUDY    29  25  86 S12       30.02F WCI  19
6HR MIN TEMP:  29; 6HR MAX TEMP:  32;

BOSCOBEL       MOCLDY    32  28  85 S12G20    30.09F WCI  23
6HR MIN TEMP:  31; 6HR MAX TEMP:  36;

PRAIRIE DU CHI CLOUDY    32  26  78 S8        30.09F WCI  24
6HR MIN TEMP:  31; 6HR MAX TEMP:  34;

PLATTEVILLE    CLOUDY    31  28  90 S12       30.10F WCI  21
6HR MIN TEMP:  31; 6HR MAX TEMP:  32;

$$

WIZ056-057-062-063-064-067-068-070100-
SOUTH CENTRAL WISCONSIN

CITY           SKY/WX    TMP DP  RH WIND       PRES   REMARKS
REEDSBURG      CLOUDY    30  25  82 S10       30.06S WCI  21
6HR MIN TEMP:  30; 6HR MAX TEMP:  33;

BARABOO/DELLS  CLOUDY    30  24  79 S9        30.05F WCI  22
6HR MIN TEMP:  30; 6HR MAX TEMP:  33;

LONE ROCK      MOCLDY    31  25  78 S9        30.10S WCI  23
6HR MIN TEMP:  29; 6HR MAX TEMP:  34;

MINERAL POINT  CLOUDY    32  28  86 SW10      30.09S WCI  24
MADISON        MOCLDY    30  24  78 VRB7      30.09F WCI  23
6HR MIN TEMP:  30; 6HR MAX TEMP:  32;

MIDDLETON      CLOUDY    31  27  82 SW9       30.10S WCI  23
6HR MIN TEMP:  31; 6HR MAX TEMP:  35;

WATERTOWN      CLEAR     28  28 100 SW3       30.10S
6HR MIN TEMP:  28; 6HR MAX TEMP:  32;

MONROE         CLOUDY    32  28  86 SW10      30.10S WCI  24
JANESVILLE     CLEAR     34  28  80 CALM      30.11F
$$

WIZ051-052-058>065-066-070>072-070100-
SOUTHEAST WISCONSIN

CITY           SKY/WX    TMP DP  RH WIND       PRES   REMARKS
MILWAUKEE      PTCLDY    33  26  75 SW6       30.11F WCI  28
6HR MIN TEMP:  32; 6HR MAX TEMP:  35;

WAUKESHA       CLEAR     28  25  86 W5        30.11F WCI  23
MILWAUKEE/TIMM CLEAR     30  25  80 SW6       30.11F WCI  24
RACINE         CLEAR     33  26  75 CALM      30.13F
6HR MIN TEMP:  32; 6HR MAX TEMP:  36;

BURLINGTON     CLEAR     29  25  85 CALM      30.12S
6HR MIN TEMP:  29; 6HR MAX TEMP:  35;

KENOSHA        CLEAR     32  26  78 CALM      30.12S
6HR MIN TEMP:  32; 6HR MAX TEMP:  38;

FOND DU LAC    PTCLDY    29  23  78 S10       30.06F WCI  20
6HR MIN TEMP:  29; 6HR MAX TEMP:  32;

SHEBOYGAN      MOCLDY    29  23  78 SW9       30.08F WCI  20
6HR MIN TEMP:  28; 6HR MAX TEMP:  32;

WEST BEND      CLEAR     30  25  80 SW8       30.08F WCI  23
JUNEAU         CLEAR     28  24  86 S10       30.09F WCI  18
6HR MIN TEMP:  28; 6HR MAX TEMP:  31;

$$

LSZ147-162-070100-
LAKE SUPERIOR

STATION/POSITION TIME  TEMP    WIND        PRES    WAVE
                       AIR SEA DIR/SP/G            HT/PER
                 (UTC) (F)     (DEG/KT/KT) (MB)    (FT/S)
DEVILS ISLAND    0000   34     210/  4/  5 1010.5F
PORT WING        2300          200/ 11/ 20   N/A
SAXON HARBOR     2300   38                 1009.8F
$$

LMZ867-665-643>646-070100-
LAKE MICHIGAN

STATION/POSITION TIME  TEMP    WIND        PRES    WAVE
                       AIR SEA DIR/SP/G            HT/PER
                 (UTC) (F)     (DEG/KT/KT) (MB)    (FT/S)
CHAMBERS ISLAND  2300   29     190/  4/ 10 1C1F1C2F2C3F3C4F4C5F5C6F6C7F7C8M1C9M2Ca!



USA.gov is the U.S. government's official web portal to all federal, state and local government web resources and services.